Weather History for KILM - March, 2014

Change the Weather History Date:

Tuesday, March 4, 2014

  Actual Average Record
Temperature  
Mean Temperature 30 °F 52 °F  
Max Temperature 34 °F 63 °F 84 °F (1976)
Min Temperature 25 °F 41 °F 9 °F (1980)
Degree Days  
Heating Degree Days 35 13  
Month to date heating degree days 74 54  
Since 1 July heating degree days 2008 1983  
Cooling Degree Days 0 0  
Month to date cooling degree days 0 0  
Year to date cooling degree days 5 5  
Moisture  
Dew Point 23 °F    
Average Humidity 73    
Maximum Humidity 78    
Minimum Humidity 68    
Precipitation  
Precipitation 0.00 in 0.14 in 1.36 in (2012)
Month to date precipitation T 0.55  
Year to date precipitation 5.46 7.93  
Snow  
Snow 0.00 in 0.00 in 0.10 in (1931)
Month to date snowfall 0.0 0.0  
Since 1 July snowfall 1.0 1.5  
Snow Depth 0.00 in    
Sea Level Pressure  
Sea Level Pressure 30.22 in    
Wind  
Wind Speed 11 mph (North)    
Max Wind Speed 23 mph    
Max Gust Speed 29 mph    
Visibility 10 miles    
Events      
T = Trace of Precipitation, MM = Missing Value Source: NWS Daily Summary

Daily Weather History Graph

Daily Weather History Graph

Search for Another Location

Airport or City:

Trip Planner

Search our weather history database for the weather conditions in past years. The results will help you decide how hot, cold, wet, or windy it might be!

Date:

Astronomy

Mar. 04, 2014 Rise Set
Actual Time 6:36 AM EST 6:10 PM EST
Civil Twilight 6:11 AM EST 6:35 PM EST
Nautical Twilight 5:42 AM EST 7:04 PM EST
Astronomical Twilight 5:13 AM EST 7:33 PM EST
Moon 8:32 AM EST (3/4) 10:03 PM EST (3/4)
Length of Visible Light 12h 23m
Length of Day
11h 33m
Waxing Crescent, 14% of the Moon is Illuminated
Mar 4
Waxing Crescent
Mar 8
First Quarter
Mar 16
Full
Mar 23
Last Quarter
Mar 30
New

Hourly Weather History & Observations

Time (EST) Temp. Windchill Dew Point Humidity Pressure Visibility Wind Dir Wind Speed Gust Speed Precip Events Conditions
12:16 AM 30.0 °F 17.5 °F 23.0 °F 75% 30.18 in 10.0 mi NNE 19.6 mph 28.8 mph N/A   Overcast
12:53 AM 28.9 °F 17.7 °F 21.0 °F 72% 30.18 in 10.0 mi NNE 15.0 mph 23.0 mph N/A   Overcast
1:53 AM 28.0 °F 16.5 °F 21.0 °F 75% 30.20 in 10.0 mi North 15.0 mph - N/A   Overcast
2:12 AM 28.0 °F 17.5 °F 21.0 °F 75% 30.22 in 10.0 mi North 12.7 mph 20.7 mph N/A   Overcast
2:29 AM 28.0 °F 15.3 °F 21.0 °F 75% 30.20 in 10.0 mi North 18.4 mph 23.0 mph N/A   Overcast
2:53 AM 28.0 °F 17.5 °F 21.0 °F 75% 30.20 in 10.0 mi North 12.7 mph - N/A   Overcast
3:53 AM 27.0 °F 15.2 °F 19.9 °F 75% 30.21 in 10.0 mi North 15.0 mph 23.0 mph N/A   Overcast
4:43 AM 27.0 °F 15.6 °F 19.9 °F 75% 30.24 in 10.0 mi NNE 13.8 mph - N/A   Overcast
4:53 AM 27.0 °F 17.3 °F 19.9 °F 75% 30.25 in 10.0 mi North 10.4 mph - N/A   Overcast
5:53 AM 26.1 °F 14.0 °F 18.0 °F 71% 30.26 in 10.0 mi North 15.0 mph - N/A   Overcast
6:53 AM 25.0 °F 12.6 °F 17.1 °F 72% 30.25 in 10.0 mi North 15.0 mph - N/A   Overcast
7:53 AM 25.0 °F 13.1 °F 17.1 °F 72% 30.25 in 10.0 mi NNE 13.8 mph - N/A   Overcast
8:53 AM 27.0 °F 16.7 °F 18.0 °F 69% 30.29 in 10.0 mi North 11.5 mph - N/A   Overcast
9:53 AM 28.0 °F 18.1 °F 19.0 °F 69% 30.28 in 10.0 mi North 11.5 mph - N/A   Overcast
10:53 AM 28.9 °F 19.8 °F 21.0 °F 72% 30.28 in 10.0 mi North 10.4 mph - N/A   Overcast
11:53 AM 30.0 °F 20.5 °F 21.0 °F 69% 30.25 in 10.0 mi North 11.5 mph - N/A   Overcast
12:53 PM 30.9 °F 22.2 °F 21.9 °F 69% 30.24 in 10.0 mi North 10.4 mph - N/A   Overcast
1:53 PM 32.0 °F 23.6 °F 24.1 °F 73% 30.22 in 9.0 mi North 10.4 mph - N/A   Overcast
2:53 PM 33.1 °F 24.9 °F 25.0 °F 72% 30.20 in 10.0 mi North 10.4 mph - N/A   Overcast
3:53 PM 34.0 °F 26.6 °F 26.1 °F 73% 30.19 in 10.0 mi North 9.2 mph - N/A   Overcast
4:53 PM 34.0 °F 25.5 °F 27.0 °F 75% 30.18 in 10.0 mi North 11.5 mph - N/A   Overcast
5:53 PM 34.0 °F 26.6 °F 27.0 °F 75% 30.20 in 10.0 mi North 9.2 mph - N/A   Overcast
6:53 PM 34.0 °F 25.5 °F 27.0 °F 75% 30.22 in 10.0 mi North 11.5 mph - N/A   Overcast
7:25 PM 34.0 °F 27.2 °F 26.1 °F 73% 30.21 in 10.0 mi North 8.1 mph - N/A   Overcast
7:53 PM 34.0 °F 26.6 °F 26.1 °F 73% 30.22 in 10.0 mi North 9.2 mph - N/A   Overcast
8:53 PM 34.0 °F 26.0 °F 26.1 °F 73% 30.21 in 10.0 mi North 10.4 mph - N/A   Overcast
9:53 PM 34.0 °F 28.0 °F 27.0 °F 75% 30.21 in 10.0 mi NNE 6.9 mph - N/A   Overcast
10:53 PM 34.0 °F 28.0 °F 27.0 °F 75% 30.20 in 10.0 mi North 6.9 mph - N/A   Overcast
11:53 PM 34.0 °F 27.2 °F 27.0 °F 75% 30.18 in 10.0 mi NNE 8.1 mph - N/A   Overcast